Wind_Speed
15 17 19 19 19 19 19 19 19 18 17 16 15 15 15 14 14 14 14 13 14 16 15 14 14 15 17 17 17 17 17 17 17 17 17 16 16 16 15 14 14 14 15 16 17 16 17 17 18 18 18 19 19 20 21 21 21 20 21 22 22 22 23 24 24 25 25 25 25 23 22 22 23 23 22 23 24 24 26 27 27 28 28 27 24
16 17 19 20 20 19 20 21 21 20 18 17 17 16 16 16 16 16 16 17 17 16 15 15 16 17 18 18 18 17 18 18 18 18 18 18 17 17 16 16 15 16 17 17 17 17 17 18 18 19 20 20 20 21 22 22 22 21 21 22 22 22 23 24 24 25 25 25 26 24 23 23 25 25 24 24 25 26 28 28 28 28 28 27 25
14 16 16 18 19 20 21 22 21 20 19 18 18 18 18 18 17 17 17 17 17 16 16 16 17 18 18 18 18 18 18 19 19 18 18 18 18 18 17 17 17 17 18 18 18 18 18 18 19 20 21 21 21 22 22 22 22 22 22 22 22 22 23 24 24 24 25 26 27 26 25 25 25 25 27 26 26 28 28 28 28 27 28 27 25
12 13 14 15 18 19 20 21 20 19 18 18 18 18 18 18 18 17 18 18 18 18 18 18 19 19 19 19 19 19 19 19 19 19 19 19 19 19 18 18 18 19 19 19 19 19 19 20 20 21 22 22 22 22 23 23 22 23 22 22 23 23 24 25 26 25 25 27 28 27 27 27 25 27 30 28 27 29 28 28 29 29 28 27 25
13 13 13 14 15 16 17 18 18 18 18 18 18 18 18 18 18 18 19 20 20 20 20 20 20 20 21 21 21 21 21 20 20 20 20 20 20 20 20 20 20 20 20 20 21 21 21 21 21 21 22 22 22 22 22 23 22 23 22 22 23 25 25 26 27 27 26 27 28 27 28 28 26 28 31 28 28 29 28 27 29 30 29 28 27
16 14 12 12 13 13 13 14 15 16 17 17 18 18 18 19 19 20 20 21 21 21 21 21 21 21 21 22 22 22 22 22 22 21 21 21 21 22 22 22 22 22 21 22 22 22 22 21 21 22 22 22 21 21 22 22 22 23 22 21 22 24 26 25 27 29 28 27 28 27 28 29 28 29 29 27 27 28 28 27 29 31 31 30 29
17 14 12 11 12 12 12 12 12 13 15 17 18 19 20 21 21 21 21 21 22 21 21 22 22 22 22 23 23 23 24 23 23 22 22 22 22 22 23 23 23 23 22 22 23 23 23 22 22 22 21 21 21 20 21 21 22 23 23 22 22 23 25 25 27 30 29 29 30 29 29 30 30 30 29 27 27 27 28 28 29 31 32 31 31
13 12 13 13 14 14 15 15 15 16 18 19 21 22 23 23 23 22 22 22 22 22 22 22 22 23 23 23 24 24 24 24 23 23 23 23 23 23 23 24 24 24 23 23 23 23 23 22 22 21 21 21 21 20 20 20 20 22 23 23 23 24 24 25 27 30 30 30 31 30 29 30 31 31 29 27 28 28 28 29 29 31 33 32 31
13 14 15 15 16 16 18 19 20 20 21 22 23 24 25 25 25 24 23 22 22 23 23 22 22 23 23 23 23 23 23 23 23 23 23 24 24 24 24 25 24 25 25 24 24 24 24 23 22 22 21 21 21 20 19 18 18 19 21 22 23 24 25 25 26 28 30 30 31 31 30 31 32 32 30 28 28 30 32 32 31 32 33 33 32
17 18 18 17 17 18 18 20 20 21 21 22 24 25 26 26 26 25 24 23 23 23 24 23 23 23 23 22 22 23 23 23 23 23 24 24 25 25 25 25 25 25 25 25 25 25 25 24 24 23 22 21 21 20 19 19 18 19 20 21 22 23 24 25 26 27 29 30 32 32 31 31 32 32 31 29 30 33 34 33 34 34 33 34 34
20 21 21 20 19 19 19 19 19 20 21 22 24 26 27 27 27 25 24 24 24 24 24 24 23 23 23 23 23 23 23 23 23 24 24 24 25 25 25 26 26 26 25 25 25 25 26 25 25 24 24 23 22 21 20 19 19 20 21 22 23 23 24 26 27 28 29 29 31 32 31 31 32 31 30 30 32 34 36 35 35 35 35 35 36
20 22 23 22 22 22 21 21 20 20 21 23 24 26 27 27 27 26 26 25 25 25 25 24 23 23 23 23 23 24 24 23 24 24 24 24 25 25 25 26 26 26 26 26 26 25 26 26 26 25 24 23 22 21 20 20 20 21 22 23 24 25 25 26 27 29 30 29 30 31 31 30 31 31 30 31 31 30 32 33 34 36 36 36 36
22 23 24 24 25 25 25 24 23 22 23 23 25 27 27 28 28 27 27 27 26 25 25 24 24 24 24 25 25 24 24 24 24 24 24 24 25 25 25 26 27 27 27 27 27 27 27 27 27 26 25 24 22 22 21 21 22 23 24 25 26 26 27 27 28 29 30 30 29 30 32 30 30 31 31 31 31 29 29 29 30 34 37 37 37
27 27 27 27 27 26 26 26 25 25 25 24 25 27 28 28 28 29 28 28 27 26 25 24 24 25 25 25 25 25 25 24 24 24 24 25 25 25 26 27 27 27 27 27 27 28 28 28 28 27 26 25 23 23 23 23 24 25 26 27 27 27 28 29 29 29 31 31 30 29 31 31 29 30 31 31 31 30 30 30 31 32 35 39 39
29 29 29 29 29 27 26 26 26 27 27 26 26 27 28 29 29 30 29 28 28 27 26 25 25 26 26 26 25 25 25 25 25 25 25 26 26 26 27 27 28 28 28 28 28 28 29 29 29 28 27 26 25 25 25 26 26 27 27 28 28 28 29 30 30 30 31 31 31 30 30 31 30 29 30 30 30 30 31 32 32 31 33 40 40
27 28 29 29 29 28 27 27 27 28 28 28 27 27 29 30 30 30 30 29 29 28 27 26 26 27 26 26 26 26 26 27 27 27 27 27 27 28 28 29 29 29 29 29 29 30 30 30 30 30 29 27 27 27 27 27 28 28 28 28 28 28 28 30 30 30 31 31 31 30 30 30 30 29 30 30 30 31 32 31 32 33 34 39 41
26 27 28 28 28 28 27 26 27 28 29 28 28 28 29 30 31 31 31 30 30 28 27 27 28 28 27 27 27 28 28 28 28 29 30 30 30 30 30 30 30 31 31 31 31 31 31 31 31 31 30 29 29 29 29 28 29 29 29 29 29 29 29 30 31 31 31 32 31 31 30 30 30 30 29 30 31 31 31 30 33 36 35 36 41
26 27 27 27 27 27 26 26 26 27 28 28 28 29 30 30 31 31 31 31 30 29 29 28 28 28 28 28 28 29 30 30 31 31 31 31 31 31 31 31 32 32 32 32 32 33 32 32 32 32 32 32 31 31 31 30 30 30 30 31 31 31 30 30 31 31 31 32 32 31 31 31 31 30 30 30 31 31 31 30 32 36 36 35 39
27 27 27 27 27 27 27 26 25 26 26 27 28 29 30 31 31 31 31 31 31 30 30 29 29 28 28 28 29 30 31 32 33 33 33 32 32 32 32 32 33 33 33 33 34 34 34 34 34 34 34 34 34 33 33 32 31 31 31 32 33 33 32 32 32 32 32 32 32 32 31 31 31 31 31 31 30 31 32 32 30 33 36 36 38
28 28 28 27 27 27 28 27 27 27 27 27 27 27 29 31 32 32 32 33 32 31 30 30 30 29 29 30 30 32 33 34 34 34 34 33 33 33 33 33 33 34 34 34 35 35 36 36 36 36 36 36 35 35 34 34 33 33 32 33 33 34 34 33 33 34 33 32 32 32 32 31 32 31 31 32 32 31 32 33 32 31 34 37 38
30 29 29 27 26 26 27 27 28 29 28 28 27 28 29 31 32 33 34 34 33 32 31 31 31 31 31 31 32 33 34 34 34 34 34 34 34 34 34 34 34 34 35 35 36 36 37 37 38 37 37 37 37 36 36 36 35 35 34 34 34 34 34 34 34 35 35 34 33 33 33 32 32 31 31 32 33 33 33 34 34 33 32 35 38
33 31 30 29 28 29 29 28 28 29 29 28 28 29 30 31 33 34 35 34 33 32 32 32 32 32 33 33 33 34 34 35 35 35 35 35 35 35 35 35 35 35 36 36 37 38 38 39 39 39 39 39 38 38 37 37 37 36 36 36 35 35 35 35 35 35 36 36 34 34 34 33 33 32 31 31 33 34 34 34 35 36 34 33 35
34 34 33 33 33 33 34 33 31 31 30 29 29 30 31 32 34 34 34 34 33 33 32 33 33 34 34 34 34 35 35 36 35 35 36 36 36 36 36 36 36 36 37 38 39 39 40 40 40 41 41 41 41 40 40 39 39 38 37 37 37 36 36 36 35 36 37 37 36 35 35 35 34 32 32 32 32 34 35 35 35 36 36 35 34
37 38 38 37 35 35 36 35 34 33 32 31 30 31 33 34 34 35 34 34 34 33 33 34 35 35 36 36 36 36 36 36 36 36 36 36 36 36 37 37 37 38 39 39 40 40 41 41 42 42 42 42 43 43 42 42 41 40 40 39 39 39 38 37 36 36 37 38 38 37 37 37 36 34 33 33 33 33 34 36 36 36 36 36 35
40 40 39 36 33 33 35 35 34 33 32 32 31 32 34 34 35 35 35 35 35 35 36 36 37 37 37 37 37 38 37 37 37 37 37 37 37 37 37 38 38 39 40 40 41 41 42 42 43 43 43 43 44 44 44 43 43 43 42 42 41 41 40 39 38 37 37 38 38 38 38 39 39 37 34 34 34 34 34 36 37 37 37 36 35
38 37 37 35 32 32 32 32 32 31 31 31 32 33 34 35 35 35 35 35 36 37 38 38 38 38 38 38 38 39 38 38 38 38 38 37 37 38 38 39 39 40 41 41 42 42 43 43 43 43 44 44 44 44 44 44 44 43 43 43 43 42 42 42 41 39 38 38 39 39 38 40 41 40 38 36 35 35 35 35 36 37 38 37 36
33 33 34 34 34 33 33 32 31 31 31 31 32 33 34 35 35 35 35 36 37 38 38 38 38 38 38 39 39 39 39 39 40 39 38 38 38 38 39 39 40 41 41 42 42 43 43 43 43 44 44 44 45 45 45 45 45 45 44 44 44 44 44 44 44 43 41 40 40 40 40 40 41 42 41 39 37 36 35 35 35 37 39 39 38
31 31 30 31 32 34 35 34 33 32 31 31 32 33 34 35 35 35 35 36 37 37 38 38 38 38 39 40 40 40 41 41 41 40 39 39 38 39 39 40 40 41 42 42 43 43 43 44 44 44 44 45 45 45 45 45 46 46 46 46 46 46 46 46 46 45 45 43 41 41 41 41 41 43 43 42 40 38 37 36 35 36 38 40 40
30 29 28 28 28 30 32 33 33 32 32 32 33 34 35 35 35 36 36 36 36 37 37 38 38 39 40 40 40 41 42 41 40 39 39 39 39 39 40 40 41 41 42 42 43 43 44 44 45 45 46 46 47 47 47 47 47 47 47 47 47 47 47 47 47 47 47 46 45 43 42 42 42 43 44 45 43 41 40 38 36 36 38 39 41
30 30 29 28 27 27 29 31 32 32 32 33 34 35 36 36 36 36 36 36 36 37 38 38 39 39 40 40 41 42 41 40 40 39 39 39 40 40 40 40 41 41 42 43 43 43 44 44 45 45 46 46 47 47 47 48 48 47 47 47 47 47 47 48 48 48 48 49 48 47 45 44 43 43 44 45 45 44 43 41 38 37 37 38 40
29 29 29 27 26 26 27 29 31 32 32 33 34 35 36 36 36 36 37 37 37 38 38 39 39 40 40 41 42 41 40 39 39 39 39 40 40 40 40 41 41 41 41 41 42 42 42 43 43 44 45 46 47 48 48 49 50 50 50 50 49 49 49 49 49 49 49 50 50 50 49 47 46 45 45 46 46 46 45 44 41 39 38 38 39
28 28 28 27 26 25 26 28 30 31 32 33 34 34 35 36 36 37 38 38 38 39 39 39 39 40 41 41 40 39 39 39 39 39 40 40 40 39 39 39 39 39 40 40 41 42 43 44 45 46 47 48 49 50 51 52 53 54 54 55 55 54 53 53 52 52 52 51 51 51 51 51 49 48 46 46 47 47 47 46 44 42 40 39 39
30 28 27 27 27 26 26 28 29 30 31 31 32 33 35 36 37 38 38 38 38 38 39 39 40 40 39 38 38 38 38 38 39 39 39 39 38 38 38 38 39 39 41 42 43 44 45 46 46 47 48 49 51 52 53 54 55 57 58 58 59 59 59 58 57 57 56 55 55 54 53 53 53 52 50 48 48 49 48 47 46 44 42 41 40
33 30 28 26 27 27 27 28 29 30 30 31 32 33 34 35 36 37 37 37 38 38 38 38 38 37 37 37 37 37 38 38 39 38 38 37 37 37 38 39 40 41 42 43 44 45 45 46 47 48 50 51 52 53 54 55 56 56 57 58 59 59 60 60 59 59 59 59 58 58 57 57 56 55 54 51 49 49 50 49 48 47 44 42 41
31 31 29 27 27 28 28 28 29 29 30 31 31 32 33 34 35 35 35 36 36 37 37 36 35 35 35 36 37 37 38 38 38 37 37 37 37 38 39 40 41 41 42 43 43 45 46 47 48 49 50 51 52 52 53 54 54 55 55 56 57 58 59 60 59 59 58 58 59 59 59 60 60 59 58 56 53 50 50 50 50 48 46 44 42
26 27 27 27 27 28 28 28 28 29 29 30 31 31 32 33 33 34 34 35 34 34 33 33 34 35 35 36 37 38 38 37 37 36 37 37 38 39 39 40 40 41 42 43 44 45 46 47 48 49 50 51 52 52 53 54 54 55 56 56 57 58 59 61 61 61 61 59 58 58 58 59 61 62 62 60 58 54 51 51 51 50 48 46 43
26 26 26 26 27 28 28 28 29 29 29 30 30 31 31 32 32 33 32 32 31 31 32 33 34 34 35 36 37 37 36 36 36 36 37 37 38 38 39 39 40 41 42 43 44 45 46 47 48 50 51 52 52 53 54 55 55 56 56 57 58 58 59 60 62 63 64 63 62 60 59 58 59 61 63 63 62 59 55 52 51 51 49 47 44
28 27 27 27 28 28 28 29 29 29 29 29 29 29 30 30 30 30 30 30 30 31 32 33 33 35 36 36 36 35 35 35 35 36 36 36 37 37 38 39 40 41 43 44 45 46 47 48 49 51 52 53 53 54 55 55 56 56 57 58 58 59 60 61 62 63 64 65 65 64 62 60 59 59 61 63 64 63 59 54 52 51 50 48 45
29 28 28 28 28 27 27 27 28 28 27 27 27 27 28 28 28 28 29 29 30 32 32 33 34 35 35 35 34 33 34 34 34 35 35 35 36 37 38 39 40 42 43 44 46 47 48 49 50 51 52 53 53 54 54 55 56 57 58 59 59 60 61 62 62 62 63 64 65 65 64 62 61 59 60 61 64 64 62 58 54 52 50 48 45
29 27 27 27 26 26 26 26 26 26 26 26 26 26 27 27 27 28 29 30 31 32 33 33 33 33 33 32 32 32 33 33 33 34 34 35 36 37 38 40 41 42 44 45 46 47 48 49 50 51 51 52 52 53 54 55 56 57 58 59 61 62 62 63 63 63 62 62 63 64 64 63 62 61 60 60 62 63 63 60 56 52 51 49 46
27 26 25 25 25 25 25 25 25 25 25 26 26 26 26 27 27 28 29 30 31 32 32 32 31 31 31 31 31 32 32 32 32 33 34 35 36 37 39 40 41 42 44 45 46 47 48 48 49 49 50 51 51 52 53 54 56 57 58 60 61 63 64 64 64 63 61 59 58 58 60 61 61 61 60 60 61 61 62 61 57 54 51 50 48
25 24 24 24 25 25 25 25 25 25 25 26 26 27 27 28 28 29 29 29 30 30 30 29 29 29 30 30 30 30 30 30 31 32 34 35 36 37 39 40 41 42 42 43 44 45 46 46 47 48 49 50 51 51 52 54 55 56 58 60 62 64 66 66 65 62 59 55 52 51 52 55 57 58 59 60 60 60 60 60 58 54 52 51 50
24 24 24 24 24 24 24 25 25 25 26 26 27 27 28 28 28 28 28 28 28 27 27 27 28 28 29 29 29 29 29 30 32 33 34 35 36 37 38 39 40 40 41 41 42 43 44 44 45 46 47 48 49 50 51 53 54 56 58 61 64 66 66 65 63 60 56 51 46 44 45 47 50 52 54 56 58 58 58 58 58 55 52 52 51
25 25 25 24 24 24 24 25 25 25 25 26 27 27 27 27 27 26 26 25 25 25 26 26 27 27 27 27 27 29 30 31 32 33 35 35 36 37 37 38 38 38 39 40 40 41 42 43 44 45 46 47 47 48 50 51 53 56 58 61 64 65 63 61 58 55 52 48 42 38 38 40 43 45 47 49 52 55 55 56 57 55 52 52 52
25 25 25 24 24 24 24 24 24 24 25 26 26 26 25 24 24 23 23 23 24 24 25 25 25 25 26 26 28 29 31 32 33 34 35 35 35 36 36 36 36 37 37 38 39 40 41 42 43 44 45 45 46 47 48 50 53 55 58 62 63 63 60 57 54 50 48 45 40 34 33 35 37 39 40 42 45 49 51 53 55 54 52 51 52
25 25 25 25 24 24 24 25 24 24 24 24 24 23 22 22 21 22 22 23 24 24 24 24 24 25 25 27 29 30 31 33 33 34 34 34 34 34 34 34 35 35 36 37 37 39 40 41 43 43 44 44 45 46 47 50 52 54 58 61 62 60 57 54 51 47 44 42 39 33 29 29 31 33 34 35 38 43 48 51 53 53 52 52 51
27 27 26 25 25 25 25 24 24 23 23 23 22 21 21 20 21 21 22 23 23 23 22 22 23 25 26 28 29 30 31 32 33 33 33 33 33 33 32 33 33 34 35 35 36 38 39 41 42 43 43 44 45 45 47 49 51 54 58 61 61 58 54 50 47 44 40 38 37 33 28 26 25 25 26 27 29 35 43 48 51 51 51 51 50
27 27 26 25 25 25 24 23 23 22 22 21 20 20 20 20 20 21 21 21 21 21 21 22 24 25 27 28 29 30 31 32 32 33 32 32 31 31 30 31 32 33 34 34 36 38 39 40 42 42 43 44 45 46 47 50 52 55 59 61 60 57 53 48 44 41 38 34 32 29 26 24 21 18 16 18 19 24 33 42 46 47 49 48 46
26 26 26 25 25 24 23 22 22 21 20 19 19 19 19 20 20 20 20 20 19 20 21 23 24 26 27 28 29 30 31 31 32 32 31 30 29 28 29 30 32 32 33 34 35 37 39 41 42 43 43 44 45 47 48 51 53 56 59 61 59 56 53 48 44 40 37 33 30 27 23 22 20 15 12 13 13 14 22 33 39 40 41 41 42
26 26 25 24 24 23 22 21 20 19 19 19 19 19 19 19 19 18 18 18 19 20 21 23 24 25 27 28 29 29 30 30 30 30 29 28 27 27 28 30 31 32 33 34 35 36 38 40 42 44 45 46 46 47 49 51 53 56 59 60 59 56 52 48 43 39 35 32 29 26 22 20 18 16 14 15 15 12 15 24 31 34 35 36 38
26 25 25 24 23 22 21 20 19 18 19 19 19 19 18 18 17 17 17 18 19 20 21 23 24 25 26 27 28 29 29 29 28 27 26 25 26 27 28 30 30 31 32 34 35 36 38 40 42 44 45 46 47 47 49 50 53 55 58 59 58 55 52 48 44 39 35 32 28 25 22 19 16 15 13 16 20 15 13 19 27 31 34 35 36
Wind_Direction
238 238 241 244 244 246 249 252 253 253 253 255 260 267 268 264 261 264 261 252 253 263 269 270 269 270 273 279 286 293 297 299 301 301 299 299 301 301 301 298 294 292 292 293 296 298 299 301 302 304 305 304 300 298 298 298 298 298 298 297 296 295 295 294 292 289 286 285 283 278 277 281 281 282 279 268 260 258 254 249 249 251 251 252 253
237 242 244 244 243 244 247 250 253 254 254 256 258 259 258 257 256 255 255 255 260 267 271 273 272 271 273 278 285 291 296 300 304 306 304 301 300 300 301 300 296 293 293 295 296 298 299 300 300 301 301 301 300 299 299 298 297 297 295 296 297 295 294 293 291 290 287 287 285 278 271 272 274 278 279 273 263 258 256 252 250 250 248 248 250
241 248 250 247 245 243 245 248 251 253 254 254 255 255 255 254 251 251 255 261 267 272 272 270 268 268 271 276 282 288 294 299 303 305 303 300 299 299 300 300 297 295 293 294 296 297 298 297 298 299 299 300 300 299 297 296 296 296 295 296 297 295 293 292 292 292 289 285 284 283 277 272 272 276 276 273 266 259 257 254 252 250 246 246 249
248 257 258 253 246 242 243 246 249 251 251 252 253 255 256 253 252 257 265 270 272 272 269 267 267 269 272 276 280 286 291 297 301 303 301 299 298 298 300 300 298 297 296 296 297 297 296 296 297 297 298 299 298 296 296 296 296 296 296 298 298 295 293 293 293 292 289 286 285 285 284 280 275 270 270 274 272 265 260 254 250 249 247 245 246
251 266 266 256 247 243 244 247 251 254 254 254 254 255 256 255 259 265 270 271 270 268 267 267 268 270 273 276 280 284 288 294 299 302 301 299 298 298 300 300 299 299 298 298 298 297 297 297 296 297 298 298 297 295 295 297 297 297 297 298 297 295 295 294 293 290 288 288 287 284 282 283 280 271 269 275 276 268 261 254 247 247 248 245 246
256 267 263 251 245 243 249 254 258 262 262 262 261 259 259 260 264 268 269 268 267 267 268 270 272 274 276 278 281 283 287 291 295 299 299 298 297 297 299 300 299 299 299 298 298 298 298 297 296 297 298 299 299 297 297 298 299 300 300 299 295 295 296 296 293 292 290 288 286 283 282 282 281 278 275 276 280 273 262 255 246 243 244 243 242
256 257 252 253 252 246 252 260 268 273 272 271 269 266 265 265 268 269 268 267 267 268 270 272 274 275 277 279 281 283 285 288 292 296 298 297 295 295 296 298 298 299 299 298 297 297 297 296 295 296 298 299 300 299 299 301 304 305 307 306 303 300 299 299 296 296 296 293 288 286 284 282 281 282 279 278 284 280 266 257 248 242 241 241 241
247 247 255 266 264 255 255 261 269 274 275 275 272 270 269 268 269 268 267 267 267 268 269 271 272 273 274 275 277 279 282 285 289 293 295 294 292 291 291 293 295 296 297 297 297 297 296 295 295 296 298 301 301 300 300 303 306 308 310 311 310 306 303 301 298 297 298 296 293 291 286 284 282 281 279 279 285 286 274 260 250 242 239 241 242
247 254 264 269 268 262 260 261 265 269 271 271 270 269 269 268 268 266 267 267 267 268 268 268 269 270 272 273 274 276 279 282 285 288 289 290 290 289 289 290 292 294 295 296 297 296 295 293 293 294 297 299 300 300 301 304 306 308 309 310 310 308 304 302 299 297 297 297 296 294 289 285 283 281 280 279 282 284 280 265 251 242 238 239 242
256 261 264 264 265 265 264 262 261 262 264 265 266 267 267 267 267 267 268 268 268 268 267 267 267 269 271 273 275 277 279 281 283 285 286 288 289 289 290 291 292 294 296 297 298 297 295 294 294 296 298 300 301 301 303 305 307 308 308 310 309 307 305 304 301 297 296 295 295 296 293 286 282 281 279 278 276 273 272 265 253 244 239 238 240
261 262 261 258 258 261 263 261 258 258 261 263 265 266 266 267 268 268 269 269 269 267 266 267 268 271 273 275 278 280 281 282 282 284 285 287 288 289 290 291 292 293 295 297 298 297 296 294 295 297 299 301 303 303 303 304 304 305 305 306 307 307 308 307 305 302 299 296 294 295 296 291 284 282 277 275 277 272 266 261 253 247 241 238 239
264 263 262 257 255 260 261 259 257 258 260 262 264 265 266 268 268 269 269 269 269 268 267 269 271 274 276 278 279 280 281 282 282 283 284 286 287 289 290 291 292 293 294 296 297 296 295 294 294 294 296 299 300 300 300 300 300 300 300 302 303 306 308 308 307 307 305 302 297 293 295 294 288 285 278 271 275 277 270 261 255 249 241 238 240
269 268 264 259 258 263 263 259 257 259 261 262 263 264 265 267 267 267 268 268 268 268 268 270 273 276 277 279 280 281 282 283 283 284 284 286 287 288 289 290 291 293 294 295 296 296 295 294 294 293 294 297 298 297 296 296 296 297 298 299 301 303 305 306 307 308 309 308 302 294 292 293 289 285 280 273 271 274 273 266 262 255 243 238 239
274 272 266 261 261 265 265 261 259 260 262 262 261 262 264 264 263 264 265 266 267 268 269 271 274 276 278 280 282 283 284 285 285 286 286 286 287 287 288 288 290 292 294 296 296 296 296 295 294 294 295 296 296 295 294 294 295 296 298 300 301 302 303 304 306 307 309 310 308 300 292 291 289 283 279 277 272 271 274 271 268 263 249 239 238
272 270 266 263 263 265 267 265 262 261 262 263 262 261 262 262 261 262 264 265 267 267 268 270 273 277 279 281 282 284 286 286 287 288 288 288 287 288 288 289 291 293 295 297 297 297 296 295 294 293 294 294 293 292 292 293 294 296 298 300 301 302 301 301 302 304 306 308 310 306 297 291 290 284 279 278 274 270 275 275 269 268 257 242 239
268 266 264 262 263 265 267 267 265 262 262 263 263 261 260 260 260 261 263 265 266 267 268 270 273 275 278 280 282 285 287 289 290 290 289 289 290 291 292 292 293 294 295 296 296 296 295 294 293 292 292 292 291 291 290 291 294 295 297 299 299 300 300 299 299 300 302 305 308 308 302 295 291 287 281 278 277 272 273 276 272 272 264 246 239
264 264 263 262 263 264 265 265 264 264 264 265 264 261 260 260 259 260 262 264 266 267 268 269 272 275 279 282 285 287 290 292 293 293 292 292 293 294 295 295 295 295 295 295 295 294 294 293 292 292 291 291 290 290 291 291 293 294 296 297 298 298 298 299 299 299 300 302 306 308 305 299 292 289 284 278 279 275 273 278 274 269 264 249 241
263 263 261 261 261 262 263 263 263 264 266 267 265 263 261 260 258 258 260 263 265 266 266 268 272 276 281 285 288 291 293 294 294 294 295 295 294 294 295 295 295 295 294 294 294 293 292 292 291 291 290 290 291 291 291 292 293 293 295 295 296 297 297 297 297 298 298 299 302 305 305 302 295 290 285 280 279 276 274 278 272 262 260 252 243
261 259 258 259 259 260 262 262 263 263 264 265 265 264 261 258 257 258 259 261 263 263 264 267 271 275 280 284 288 290 292 292 293 293 294 295 295 294 294 294 294 294 293 293 292 292 291 291 290 290 290 290 291 291 292 292 292 292 293 294 295 296 296 296 296 296 296 296 298 301 303 303 299 293 287 281 278 276 273 276 272 259 256 253 246
258 257 257 259 260 262 263 262 261 262 263 265 266 264 261 257 255 256 257 259 260 261 263 266 270 275 280 283 286 288 289 291 292 292 293 294 294 293 293 293 293 293 293 292 292 292 291 291 290 290 291 291 291 292 292 292 292 291 292 292 293 294 295 295 295 295 295 295 295 298 299 300 301 297 290 283 279 277 273 273 273 263 254 251 247
258 259 259 261 264 266 266 263 262 261 263 265 266 265 261 257 254 254 256 258 260 261 263 266 270 275 280 284 286 288 289 291 292 292 293 294 294 294 294 294 294 294 294 294 293 293 292 292 291 291 291 291 291 291 291 291 291 290 290 291 291 292 292 292 293 293 294 294 294 294 296 296 298 298 295 287 281 277 274 271 272 270 260 251 247
261 260 260 262 266 268 268 265 263 263 263 263 264 263 261 257 255 254 255 257 259 261 262 265 270 275 280 284 286 288 290 292 293 294 295 296 296 295 295 295 295 295 294 294 293 292 292 291 291 291 290 290 289 289 289 290 290 289 289 289 290 290 291 290 290 290 291 292 292 292 293 293 294 296 296 292 284 279 275 272 270 270 268 261 254
263 264 264 266 268 268 267 265 264 264 263 262 262 261 259 257 255 255 255 257 258 260 263 266 270 275 280 284 287 289 291 293 295 297 298 298 297 296 296 295 295 295 294 293 292 292 291 291 291 291 290 290 290 289 289 289 289 288 287 287 288 289 289 289 288 288 288 289 290 291 291 290 291 293 294 293 289 282 277 274 271 268 267 266 261
269 270 271 271 270 267 265 264 264 264 262 260 260 259 258 257 256 256 256 257 259 262 264 267 271 276 280 285 287 289 292 295 297 299 299 298 297 296 296 295 295 294 293 292 292 291 291 291 291 291 291 291 291 291 291 291 290 289 288 287 288 288 289 288 287 286 286 287 288 289 289 289 289 289 291 291 290 286 280 275 272 269 266 265 263
272 273 273 271 268 265 264 263 262 261 258 257 257 256 256 256 256 257 258 260 261 263 266 269 272 277 281 285 288 290 293 296 299 300 299 298 297 296 296 295 294 294 293 292 291 291 291 291 291 291 292 292 292 292 292 292 291 291 290 289 289 289 289 288 287 285 284 284 285 286 286 287 287 287 287 287 288 288 284 278 273 270 267 264 262
270 270 270 268 265 263 262 261 260 257 255 255 255 255 255 255 256 258 260 261 263 264 267 270 273 278 282 286 288 291 294 297 299 299 298 297 296 296 295 295 294 293 293 292 292 292 292 292 292 292 293 293 293 293 293 293 292 291 291 290 290 290 289 288 287 286 285 284 284 284 284 284 285 285 284 284 284 285 285 282 276 271 267 264 263
266 268 268 267 263 260 260 261 260 258 255 254 254 254 255 256 258 260 261 262 264 266 268 271 275 280 284 286 289 293 295 297 298 298 297 297 297 296 295 295 294 294 293 293 293 293 293 293 293 293 293 293 293 292 292 292 292 291 291 291 290 290 290 289 287 286 286 284 283 283 282 282 282 282 283 282 281 281 282 283 280 274 269 265 264
265 265 266 266 263 259 258 259 259 258 256 255 254 255 256 258 260 261 263 264 266 268 271 274 278 281 285 288 291 294 296 297 297 297 298 298 297 296 296 295 295 294 294 294 294 293 293 293 293 293 293 292 292 291 291 291 291 291 290 290 289 289 288 288 287 286 286 284 283 282 281 280 280 280 280 280 279 278 279 280 281 277 271 266 264
262 261 262 264 264 261 258 257 257 257 256 255 255 255 256 258 260 262 264 266 268 271 274 277 280 283 286 289 292 294 296 297 297 298 298 298 298 298 297 296 296 295 294 294 294 294 294 294 294 294 294 293 293 292 291 291 290 290 289 289 289 288 287 287 286 286 285 284 283 282 280 279 278 277 278 278 277 277 276 277 278 278 275 270 265
260 260 262 263 264 263 261 259 258 256 256 255 255 255 256 258 261 263 264 267 270 273 277 279 282 285 288 290 293 294 296 297 298 299 300 299 299 299 299 298 297 297 296 296 296 296 296 296 296 296 296 296 296 295 295 294 293 292 291 290 289 288 287 286 285 285 284 284 283 282 280 279 277 276 275 275 275 275 275 274 275 276 276 274 268
262 261 260 260 261 263 263 261 259 257 256 255 254 255 256 258 261 262 264 267 271 274 278 281 284 286 288 291 293 295 296 298 299 300 300 300 300 300 300 300 299 299 299 299 300 300 300 300 301 301 300 300 300 299 298 297 296 295 294 292 291 290 289 287 286 285 284 283 282 282 280 279 277 275 273 272 273 272 272 272 272 272 273 274 272
263 261 259 257 260 263 264 262 260 258 256 255 255 256 257 259 260 262 265 268 272 276 279 282 284 287 289 291 294 296 297 299 299 300 300 301 301 301 302 302 302 303 303 303 304 304 304 304 304 303 303 302 301 300 299 298 297 296 294 293 291 290 288 287 285 284 283 282 281 281 280 279 276 274 272 270 269 270 270 270 270 270 270 271 273
263 265 263 261 262 264 264 262 261 259 257 256 256 257 258 259 261 263 266 270 274 277 280 282 285 288 290 292 295 296 297 298 299 300 301 302 303 303 304 304 305 305 306 306 306 305 305 304 304 303 302 302 301 300 299 298 298 296 295 294 292 290 288 286 284 282 281 280 279 278 278 278 276 274 271 268 267 266 267 267 267 267 267 267 270
260 264 266 267 266 265 265 264 263 260 258 257 256 257 259 261 263 267 270 273 275 278 280 283 286 289 291 293 295 296 297 299 300 302 303 303 304 305 305 306 306 306 306 306 305 305 304 304 303 303 302 302 301 301 300 300 299 298 297 296 294 293 291 289 286 283 280 278 276 275 274 274 274 274 271 268 265 264 264 264 264 264 265 264 266
261 262 264 267 267 264 264 264 263 262 260 259 259 260 262 264 267 270 272 274 276 279 282 285 287 290 292 293 294 296 298 300 301 302 303 304 304 305 306 306 305 305 305 304 304 304 304 304 304 304 304 303 303 302 302 301 300 300 299 298 297 296 294 292 290 287 283 280 276 273 271 270 270 271 270 268 265 262 261 261 261 262 262 262 262
267 265 264 266 265 262 261 262 262 263 263 262 262 263 265 267 269 270 272 275 278 281 284 286 288 290 291 292 295 298 300 301 302 302 303 304 304 304 304 304 304 304 305 305 305 306 306 306 306 305 305 305 304 303 303 302 301 301 300 299 298 297 296 294 292 290 287 284 280 275 272 268 266 266 266 266 265 262 259 258 258 259 259 259 260
273 269 266 265 263 261 260 260 260 261 261 262 263 264 266 268 269 271 274 277 280 283 285 287 288 290 291 294 297 299 300 300 301 302 303 303 303 303 304 304 305 306 307 307 307 307 307 307 307 307 306 306 305 305 304 303 302 302 301 300 299 297 296 295 293 292 289 286 282 278 274 269 265 263 262 262 263 261 259 256 255 256 256 256 257
273 269 264 261 261 259 258 258 259 259 260 261 263 265 266 268 270 273 277 280 282 284 286 287 289 291 293 295 297 298 299 300 301 301 302 302 303 304 305 306 307 308 308 308 309 309 309 308 308 308 307 307 307 306 306 305 304 304 303 302 300 299 298 296 295 293 291 288 284 280 276 271 266 262 259 258 259 259 257 255 253 252 253 253 253
272 266 261 259 258 257 257 257 258 259 260 262 264 266 268 271 274 277 280 282 283 285 286 288 290 292 294 295 296 297 298 299 300 301 302 303 305 306 307 308 308 309 310 310 310 310 309 309 309 309 309 309 309 309 308 308 307 306 306 305 304 303 301 299 297 295 292 289 286 281 277 272 266 262 258 255 255 255 254 253 251 249 249 250 251
267 262 258 256 255 254 255 257 258 260 263 265 266 269 272 275 278 280 281 282 283 285 287 289 290 292 293 294 295 296 297 299 300 301 303 305 307 308 308 309 310 311 311 311 310 310 310 311 311 311 311 311 311 311 311 310 310 309 309 308 307 306 305 303 300 297 293 289 285 281 277 272 267 262 257 253 251 251 251 250 249 247 246 247 248
259 254 252 251 251 253 255 258 261 263 266 268 270 272 275 278 280 281 282 283 284 286 287 289 290 291 292 293 294 295 297 299 301 303 305 307 308 309 309 310 311 311 311 311 311 312 313 313 313 313 314 314 314 313 313 312 312 312 311 311 310 309 308 306 304 300 296 291 286 281 276 271 267 262 257 252 248 247 247 246 246 245 243 243 245
248 246 247 249 251 254 257 260 263 266 269 271 273 275 276 278 280 281 282 283 284 285 286 287 288 290 291 292 294 296 298 300 303 305 306 307 308 309 310 310 310 311 312 312 313 314 315 316 316 317 317 316 316 316 316 315 315 315 315 314 314 314 313 311 308 305 301 296 290 283 277 271 266 261 256 252 247 244 243 242 241 241 240 240 242
242 244 247 250 253 256 259 263 265 268 270 272 274 275 276 278 279 280 281 281 282 283 284 286 287 289 290 292 294 297 300 302 304 306 307 308 309 309 309 310 311 312 313 314 315 317 318 319 319 319 319 319 319 319 319 318 318 319 319 320 320 320 318 316 313 309 305 300 294 286 279 273 268 261 256 251 247 243 240 238 237 237 237 238 239
242 245 248 252 255 259 262 265 266 269 270 272 273 274 276 276 276 277 278 279 280 282 283 285 287 289 292 294 297 300 302 303 305 307 307 308 309 309 309 310 311 313 314 316 318 319 320 321 321 322 322 323 323 322 322 322 322 323 324 325 325 325 323 319 316 312 308 304 298 289 280 274 270 264 257 251 246 242 238 234 233 233 233 235 237
243 246 250 254 258 261 263 264 266 268 270 271 273 273 273 272 272 274 276 278 280 282 283 286 288 291 295 298 300 302 303 305 306 307 308 308 309 309 310 310 312 314 317 319 321 322 323 323 324 325 325 325 325 325 324 325 327 328 329 330 330 329 327 323 319 316 312 308 303 294 282 275 272 267 260 251 245 240 236 232 230 229 229 232 235
243 248 252 256 260 262 263 265 266 268 269 270 270 269 268 269 271 273 275 277 280 282 285 288 291 294 298 300 302 303 305 306 307 307 308 308 308 309 310 311 313 316 319 321 323 324 325 327 327 328 328 328 328 328 328 329 330 332 333 335 334 333 331 327 324 321 317 312 308 301 289 279 275 271 264 254 245 239 234 230 227 227 227 230 233
243 249 254 258 261 262 263 265 266 266 265 264 264 264 266 268 270 273 275 278 281 284 287 291 294 297 299 301 303 304 305 306 307 307 308 307 307 308 310 312 316 319 321 323 325 326 328 329 330 331 331 331 331 331 331 332 333 334 337 339 338 336 334 331 328 325 320 314 310 304 296 288 281 276 269 258 246 239 235 230 227 226 226 228 231
244 250 255 259 260 261 262 262 262 260 259 259 261 262 265 268 271 274 276 279 282 286 289 293 296 299 301 302 303 304 305 306 306 307 307 307 307 308 311 314 318 321 323 325 328 329 330 331 332 334 335 335 334 333 333 334 336 338 341 342 341 340 338 336 333 329 324 320 314 309 303 295 287 278 270 258 245 240 237 232 228 227 227 227 229
248 254 257 258 258 259 259 257 255 255 256 257 259 262 265 268 271 274 276 279 283 288 292 296 298 300 301 303 304 305 306 306 306 307 307 307 307 310 313 317 320 322 324 328 331 333 334 334 335 337 338 338 337 336 337 339 341 344 346 346 345 344 342 341 339 335 331 327 322 316 308 300 290 275 254 237 230 238 242 235 229 227 227 227 226
252 254 255 256 256 256 253 251 251 252 254 256 259 262 265 268 270 272 276 281 286 290 294 297 299 300 302 303 305 306 306 306 306 307 307 307 309 312 316 319 322 324 327 331 334 336 336 337 339 341 341 341 340 340 342 344 346 348 349 349 348 347 346 345 344 341 337 333 329 322 314 305 295 280 251 220 210 223 238 233 228 226 224 226 226
251 252 252 252 251 249 247 247 248 251 253 256 258 261 264 266 269 273 278 284 289 293 296 298 299 301 302 304 306 306 306 307 307 308 308 309 312 315 318 321 324 326 330 334 337 338 338 340 343 345 344 344 343 344 346 347 349 351 352 352 351 350 349 348 347 346 344 340 337 331 321 312 302 289 261 219 208 220 229 222 223 224 221 221 226
Height
5817 5818 5818 5819 5820 5820 5821 5822 5823 5824 5825 5826 5827 5828 5828 5829 5829 5830 5831 5832 5832 5832 5831 5831 5831 5831 5831 5831 5831 5830 5830 5829 5828 5828 5827 5826 5826 5825 5825 5824 5823 5822 5821 5820 5819 5819 5818 5816 5815 5814 5813 5813 5811 5810 5809 5807 5806 5805 5803 5802 5802 5801 5801 5800 5800 5798 5797 5796 5796 5796 5795 5794 5792 5792 5792 5791 5790 5790 5790 5790 5790 5790 5790 5790 5790
5814 5815 5815 5816 5817 5818 5819 5820 5821 5822 5823 5824 5825 5826 5826 5827 5827 5828 5829 5830 5830 5830 5829 5829 5829 5830 5830 5829 5829 5828 5827 5826 5826 5825 5825 5824 5824 5823 5823 5822 5821 5821 5819 5818 5818 5817 5816 5815 5814 5813 5812 5811 5810 5808 5807 5805 5803 5802 5800 5799 5799 5799 5798 5797 5796 5796 5795 5794 5793 5792 5793 5791 5790 5790 5790 5789 5788 5787 5786 5787 5787 5787 5787 5787 5787
5812 5812 5813 5815 5815 5816 5817 5817 5818 5819 5821 5822 5822 5823 5824 5824 5825 5826 5826 5827 5827 5828 5828 5827 5827 5828 5827 5827 5826 5826 5825 5824 5824 5823 5823 5823 5822 5821 5820 5820 5820 5819 5818 5817 5816 5815 5814 5813 5812 5812 5811 5809 5808 5807 5805 5803 5801 5799 5798 5797 5797 5796 5795 5794 5793 5793 5792 5791 5789 5789 5789 5789 5789 5788 5787 5786 5785 5784 5784 5784 5784 5784 5785 5785 5786
5810 5811 5812 5813 5813 5814 5815 5815 5816 5817 5818 5819 5820 5821 5821 5822 5823 5823 5824 5824 5825 5825 5825 5826 5826 5826 5825 5825 5824 5823 5823 5822 5822 5822 5821 5821 5820 5819 5818 5818 5817 5817 5816 5815 5814 5813 5812 5811 5810 5810 5809 5807 5806 5804 5803 5801 5799 5797 5796 5795 5794 5793 5792 5791 5790 5789 5789 5787 5787 5787 5786 5785 5787 5785 5783 5783 5783 5782 5782 5782 5781 5781 5782 5783 5784
5809 5810 5810 5811 5812 5812 5813 5813 5814 5815 5816 5817 5818 5819 5819 5820 5821 5821 5821 5822 5822 5822 5823 5823 5824 5823 5823 5823 5822 5821 5821 5820 5820 5819 5819 5818 5818 5817 5816 5816 5815 5814 5814 5812 5811 5810 5810 5809 5808 5807 5806 5805 5804 5802 5800 5798 5796 5795 5793 5793 5791 5790 5790 5789 5787 5786 5786 5785 5784 5784 5782 5782 5783 5782 5779 5780 5780 5779 5779 5779 5779 5779 5779 5780 5781
5807 5808 5809 5809 5810 5811 5811 5812 5812 5813 5814 5815 5816 5817 5818 5818 5819 5819 5819 5819 5820 5820 5820 5821 5821 5821 5821 5820 5820 5819 5818 5818 5818 5817 5816 5816 5815 5814 5813 5813 5812 5812 5811 5810 5809 5808 5807 5807 5806 5805 5804 5803 5801 5800 5798 5796 5794 5793 5792 5791 5790 5788 5788 5786 5784 5783 5783 5783 5781 5780 5779 5778 5778 5777 5776 5777 5776 5775 5776 5776 5776 5776 5776 5777 5778
5805 5806 5807 5808 5809 5810 5810 5811 5811 5812 5813 5814 5815 5815 5816 5816 5817 5817 5817 5817 5818 5818 5818 5818 5818 5818 5818 5818 5817 5816 5816 5815 5815 5815 5814 5814 5813 5812 5811 5810 5809 5809 5809 5808 5807 5806 5805 5804 5804 5803 5802 5801 5799 5797 5796 5794 5792 5790 5789 5788 5787 5786 5784 5784 5782 5779 5779 5779 5777 5777 5776 5774 5774 5773 5772 5773 5772 5772 5772 5772 5772 5773 5773 5774 5775
5804 5804 5805 5806 5807 5809 5809 5809 5810 5811 5811 5812 5813 5813 5814 5814 5815 5815 5815 5815 5816 5816 5816 5816 5816 5816 5816 5816 5815 5814 5814 5813 5813 5813 5812 5811 5811 5810 5809 5808 5807 5807 5806 5806 5805 5804 5803 5802 5801 5800 5799 5798 5797 5795 5794 5792 5790 5788 5786 5785 5784 5782 5781 5780 5779 5777 5775 5774 5773 5773 5773 5772 5770 5769 5769 5769 5768 5768 5768 5768 5769 5770 5770 5771 5772
5802 5803 5804 5805 5805 5806 5807 5808 5808 5809 5809 5810 5810 5811 5812 5812 5813 5813 5813 5814 5814 5814 5814 5814 5814 5814 5814 5813 5813 5812 5812 5811 5810 5810 5809 5809 5808 5807 5807 5806 5805 5804 5804 5803 5802 5801 5801 5800 5799 5798 5797 5796 5794 5793 5791 5790 5788 5786 5784 5783 5781 5780 5778 5777 5776 5774 5772 5770 5769 5769 5769 5768 5767 5766 5765 5765 5765 5765 5765 5765 5765 5765 5767 5768 5768
5800 5801 5802 5803 5803 5804 5805 5805 5806 5806 5807 5807 5808 5809 5809 5810 5810 5811 5812 5812 5812 5812 5812 5812 5811 5811 5811 5811 5811 5810 5809 5809 5808 5807 5806 5805 5805 5804 5803 5802 5802 5801 5801 5800 5799 5798 5797 5796 5796 5795 5794 5793 5791 5790 5788 5787 5785 5784 5782 5781 5779 5777 5776 5774 5773 5771 5769 5768 5765 5764 5764 5763 5762 5762 5762 5761 5761 5760 5761 5761 5761 5761 5763 5764 5764
5798 5799 5800 5801 5801 5802 5802 5803 5803 5804 5804 5805 5805 5806 5806 5807 5808 5809 5809 5810 5810 5810 5809 5809 5809 5809 5808 5808 5808 5807 5806 5805 5805 5804 5803 5802 5802 5801 5800 5799 5798 5798 5797 5797 5796 5795 5794 5793 5792 5791 5790 5789 5788 5787 5785 5784 5782 5781 5779 5777 5776 5774 5773 5771 5769 5768 5766 5765 5763 5761 5760 5759 5758 5758 5758 5758 5756 5755 5756 5757 5757 5757 5759 5760 5760
5796 5796 5797 5798 5799 5799 5800 5800 5801 5801 5802 5803 5803 5803 5804 5805 5806 5806 5806 5807 5807 5807 5806 5806 5806 5806 5806 5805 5805 5804 5803 5802 5801 5801 5800 5799 5798 5798 5797 5796 5795 5795 5794 5794 5793 5792 5791 5790 5789 5788 5787 5786 5785 5784 5782 5781 5780 5778 5776 5774 5773 5771 5770 5768 5767 5764 5763 5761 5760 5758 5757 5756 5754 5754 5754 5754 5752 5752 5752 5753 5753 5753 5755 5756 5757
5793 5794 5795 5795 5796 5797 5797 5797 5798 5799 5799 5800 5801 5801 5802 5802 5803 5803 5803 5804 5804 5804 5803 5803 5803 5803 5802 5802 5801 5801 5800 5799 5798 5797 5797 5796 5795 5794 5793 5793 5792 5792 5791 5790 5790 5789 5788 5787 5786 5785 5784 5783 5782 5781 5779 5778 5776 5775 5773 5772 5770 5769 5767 5765 5764 5762 5759 5757 5756 5754 5753 5752 5752 5751 5750 5749 5749 5749 5748 5749 5750 5750 5751 5752 5752
5791 5791 5792 5793 5793 5794 5794 5794 5795 5796 5796 5798 5798 5798 5799 5799 5800 5800 5800 5801 5801 5801 5801 5801 5800 5800 5799 5799 5798 5798 5797 5796 5795 5794 5793 5793 5792 5791 5790 5790 5789 5788 5788 5787 5786 5785 5784 5783 5782 5781 5781 5780 5779 5777 5776 5775 5773 5771 5770 5768 5767 5766 5764 5762 5760 5758 5756 5754 5752 5751 5750 5749 5748 5747 5746 5746 5746 5746 5745 5746 5746 5746 5747 5748 5748
5788 5788 5789 5790 5790 5790 5791 5792 5793 5793 5793 5795 5795 5796 5796 5796 5797 5797 5798 5798 5798 5798 5798 5798 5798 5797 5796 5796 5795 5795 5794 5793 5792 5791 5790 5790 5789 5788 5787 5786 5785 5785 5784 5783 5782 5781 5781 5780 5779 5778 5777 5776 5775 5774 5772 5771 5769 5768 5766 5765 5764 5763 5761 5759 5757 5756 5753 5751 5749 5747 5746 5745 5744 5744 5743 5742 5742 5742 5742 5741 5742 5742 5743 5743 5744
5786 5786 5786 5787 5787 5788 5788 5789 5790 5790 5791 5792 5792 5793 5793 5794 5794 5795 5795 5795 5795 5796 5796 5795 5795 5794 5794 5793 5793 5792 5791 5790 5789 5788 5788 5787 5786 5785 5784 5783 5782 5781 5780 5780 5779 5778 5777 5776 5775 5774 5774 5773 5771 5770 5769 5768 5766 5765 5763 5762 5761 5759 5758 5756 5754 5753 5751 5748 5746 5744 5743 5742 5740 5740 5739 5738 5738 5738 5738 5738 5738 5738 5738 5739 5740
5783 5783 5783 5784 5785 5785 5786 5787 5787 5787 5788 5789 5789 5790 5791 5791 5792 5792 5793 5793 5793 5793 5793 5792 5792 5791 5791 5790 5789 5789 5788 5787 5786 5785 5785 5784 5783 5781 5780 5779 5779 5778 5777 5776 5775 5774 5774 5773 5772 5771 5770 5769 5768 5767 5766 5764 5763 5761 5760 5759 5757 5756 5754 5753 5751 5749 5748 5746 5744 5742 5740 5738 5737 5736 5736 5735 5734 5735 5735 5734 5734 5734 5734 5735 5736
5781 5781 5781 5782 5782 5783 5783 5784 5784 5784 5785 5786 5786 5787 5788 5789 5789 5790 5790 5790 5789 5789 5789 5789 5789 5788 5788 5787 5787 5786 5785 5784 5783 5783 5782 5781 5779 5778 5777 5776 5775 5774 5773 5772 5771 5770 5770 5769 5768 5767 5766 5765 5764 5763 5762 5761 5759 5758 5756 5755 5753 5752 5751 5749 5747 5746 5744 5743 5741 5739 5737 5735 5734 5733 5732 5731 5731 5731 5731 5731 5730 5730 5730 5731 5732
5778 5778 5779 5780 5780 5780 5780 5781 5781 5782 5782 5783 5784 5785 5786 5786 5787 5787 5786 5786 5786 5785 5786 5786 5786 5786 5785 5785 5784 5783 5782 5781 5781 5780 5779 5778 5776 5775 5774 5773 5771 5770 5769 5768 5767 5767 5766 5765 5764 5763 5762 5761 5760 5759 5758 5757 5755 5754 5752 5751 5749 5748 5747 5745 5744 5742 5741 5739 5738 5736 5734 5732 5730 5729 5729 5728 5727 5727 5727 5727 5726 5726 5726 5727 5728
5775 5776 5777 5777 5778 5778 5778 5778 5778 5779 5779 5780 5781 5782 5783 5783 5783 5783 5783 5782 5782 5782 5783 5783 5783 5783 5782 5782 5781 5780 5779 5779 5778 5777 5776 5774 5773 5772 5770 5769 5768 5766 5765 5764 5763 5763 5762 5761 5760 5759 5758 5757 5756 5755 5753 5752 5751 5750 5748 5747 5745 5744 5743 5741 5740 5738 5736 5736 5734 5733 5730 5729 5727 5726 5725 5724 5723 5723 5723 5723 5722 5722 5723 5723 5724
5773 5774 5774 5775 5775 5775 5775 5775 5776 5776 5777 5777 5778 5779 5779 5779 5780 5780 5779 5779 5779 5780 5780 5780 5780 5779 5779 5778 5778 5777 5777 5776 5775 5773 5772 5771 5769 5768 5766 5765 5764 5762 5761 5760 5759 5758 5757 5756 5755 5754 5753 5752 5751 5750 5749 5748 5747 5745 5744 5743 5741 5740 5739 5737 5736 5734 5732 5731 5730 5729 5727 5725 5724 5722 5721 5720 5719 5718 5718 5718 5718 5717 5718 5719 5720
5771 5772 5773 5773 5774 5773 5773 5773 5773 5773 5773 5774 5775 5775 5775 5776 5776 5776 5776 5776 5776 5777 5777 5777 5776 5776 5775 5775 5774 5774 5773 5772 5771 5769 5768 5766 5765 5764 5762 5761 5760 5758 5757 5756 5755 5754 5753 5752 5750 5749 5748 5747 5746 5745 5744 5743 5742 5740 5739 5738 5737 5736 5734 5733 5731 5730 5728 5726 5726 5725 5723 5721 5720 5719 5718 5716 5715 5714 5714 5714 5713 5713 5713 5714 5715
5768 5770 5770 5771 5771 5771 5770 5770 5770 5770 5770 5770 5771 5771 5771 5772 5772 5772 5773 5773 5773 5773 5773 5773 5773 5772 5772 5771 5771 5770 5769 5768 5767 5765 5764 5762 5761 5760 5758 5757 5755 5754 5753 5752 5751 5749 5748 5747 5746 5744 5743 5742 5741 5740 5739 5738 5737 5736 5735 5733 5732 5731 5730 5728 5727 5725 5723 5722 5721 5720 5719 5717 5716 5715 5714 5712 5711 5710 5709 5709 5709 5709 5709 5709 5710
5765 5766 5767 5768 5768 5767 5766 5766 5766 5767 5767 5767 5768 5768 5768 5768 5769 5769 5770 5770 5770 5770 5770 5770 5769 5769 5768 5768 5767 5766 5765 5764 5763 5762 5760 5759 5757 5756 5754 5753 5751 5750 5748 5747 5746 5745 5743 5742 5741 5739 5738 5737 5736 5734 5733 5733 5732 5731 5730 5728 5727 5726 5725 5723 5722 5721 5719 5717 5716 5715 5713 5712 5711 5711 5710 5708 5706 5705 5705 5704 5704 5704 5704 5705 5705
5762 5762 5763 5763 5763 5763 5762 5762 5762 5763 5763 5764 5764 5764 5765 5765 5765 5766 5766 5767 5767 5767 5767 5766 5766 5765 5765 5764 5763 5762 5761 5760 5759 5758 5756 5754 5753 5751 5750 5748 5747 5745 5744 5743 5742 5740 5739 5738 5736 5735 5733 5732 5731 5729 5728 5727 5726 5725 5724 5723 5722 5721 5719 5718 5717 5716 5714 5713 5711 5710 5708 5706 5705 5705 5705 5704 5702 5701 5700 5699 5699 5699 5699 5699 5700
5758 5758 5758 5759 5759 5759 5759 5758 5759 5759 5759 5760 5761 5761 5762 5762 5762 5763 5763 5764 5764 5763 5763 5763 5762 5762 5761 5760 5759 5758 5757 5756 5755 5753 5752 5750 5748 5747 5745 5744 5742 5741 5740 5738 5737 5736 5734 5733 5731 5730 5728 5727 5726 5724 5723 5722 5720 5719 5718 5717 5716 5715 5714 5713 5712 5710 5709 5708 5707 5705 5704 5702 5700 5699 5699 5699 5698 5696 5695 5694 5694 5694 5694 5694 5694
5754 5754 5754 5754 5755 5755 5755 5755 5755 5755 5756 5757 5757 5758 5758 5759 5759 5760 5760 5760 5760 5760 5760 5759 5758 5758 5757 5756 5755 5754 5753 5752 5750 5749 5747 5745 5744 5742 5741 5739 5738 5736 5735 5734 5732 5731 5729 5728 5726 5725 5723 5722 5721 5719 5718 5716 5715 5714 5712 5711 5710 5709 5707 5706 5705 5704 5703 5702 5701 5700 5698 5697 5695 5693 5693 5693 5693 5692 5691 5690 5689 5689 5689 5689 5689
5751 5751 5750 5750 5750 5751 5751 5751 5752 5752 5753 5754 5754 5755 5755 5755 5756 5756 5756 5756 5757 5756 5756 5755 5755 5754 5753 5752 5751 5750 5749 5747 5745 5744 5742 5741 5739 5738 5736 5735 5733 5732 5730 5729 5727 5726 5724 5723 5721 5719 5718 5717 5715 5714 5712 5711 5709 5708 5706 5705 5704 5703 5701 5700 5699 5698 5697 5696 5695 5694 5693 5691 5690 5688 5687 5687 5687 5686 5686 5685 5685 5684 5683 5683 5684
5747 5747 5747 5747 5747 5747 5747 5748 5749 5749 5750 5751 5751 5751 5752 5752 5752 5752 5753 5753 5753 5752 5752 5751 5751 5750 5749 5748 5747 5746 5744 5742 5741 5739 5738 5736 5734 5733 5731 5730 5728 5727 5725 5724 5722 5721 5719 5717 5716 5714 5712 5710 5709 5707 5706 5705 5704 5702 5701 5699 5698 5696 5695 5694 5692 5691 5690 5689 5688 5688 5687 5685 5684 5683 5681 5680 5680 5680 5680 5680 5680 5678 5677 5678 5678
5743 5743 5744 5744 5744 5744 5744 5745 5745 5746 5747 5747 5747 5748 5748 5748 5749 5749 5749 5749 5749 5748 5747 5747 5746 5746 5745 5744 5743 5741 5740 5738 5736 5735 5733 5731 5730 5728 5727 5725 5724 5722 5720 5719 5717 5715 5714 5712 5710 5708 5706 5704 5702 5700 5699 5697 5696 5695 5694 5693 5691 5690 5688 5687 5686 5684 5683 5682 5681 5680 5680 5679 5678 5677 5676 5674 5674 5673 5673 5673 5674 5673 5672 5671 5672
5739 5740 5740 5740 5741 5741 5741 5742 5742 5743 5743 5743 5744 5744 5744 5745 5745 5745 5745 5745 5745 5744 5744 5743 5743 5742 5741 5740 5738 5737 5735 5734 5732 5730 5729 5727 5725 5724 5722 5720 5719 5717 5715 5714 5712 5710 5708 5706 5704 5702 5700 5698 5696 5694 5692 5690 5689 5687 5686 5685 5684 5683 5681 5680 5679 5677 5676 5675 5674 5672 5672 5671 5671 5670 5669 5668 5667 5667 5666 5667 5667 5668 5667 5666 5666
5736 5736 5737 5737 5738 5738 5738 5739 5739 5739 5740 5740 5740 5741 5741 5741 5741 5741 5741 5741 5741 5741 5740 5740 5739 5738 5737 5736 5734 5733 5731 5730 5728 5726 5725 5723 5721 5720 5718 5716 5714 5712 5711 5709 5707 5705 5703 5701 5699 5697 5694 5692 5690 5688 5686 5684 5682 5679 5677 5676 5675 5674 5673 5672 5671 5670 5668 5667 5666 5665 5664 5663 5662 5662 5662 5662 5661 5660 5660 5660 5661 5661 5661 5660 5660
5733 5734 5734 5735 5735 5735 5735 5735 5735 5736 5736 5737 5737 5737 5737 5738 5738 5738 5738 5738 5737 5737 5737 5736 5735 5734 5733 5731 5730 5729 5727 5726 5724 5723 5721 5719 5717 5716 5714 5712 5710 5708 5706 5704 5702 5700 5698 5696 5693 5691 5688 5686 5684 5681 5679 5677 5674 5672 5669 5667 5665 5663 5663 5662 5661 5660 5659 5658 5658 5657 5656 5654 5653 5653 5653 5653 5653 5653 5653 5653 5653 5654 5655 5655 5654
5730 5731 5732 5732 5732 5732 5732 5732 5732 5732 5733 5733 5734 5734 5734 5734 5734 5734 5734 5734 5734 5733 5733 5732 5731 5730 5729 5727 5726 5725 5724 5722 5721 5719 5717 5715 5714 5712 5710 5708 5706 5704 5702 5699 5697 5695 5692 5690 5687 5685 5682 5680 5677 5675 5672 5669 5667 5664 5661 5658 5656 5653 5652 5650 5650 5649 5649 5648 5648 5647 5647 5646 5644 5643 5643 5644 5645 5645 5645 5645 5646 5647 5648 5649 5649
5727 5728 5728 5729 5729 5728 5728 5729 5729 5729 5730 5730 5730 5730 5730 5730 5731 5731 5730 5730 5730 5730 5729 5728 5727 5726 5725 5724 5722 5721 5720 5718 5717 5715 5713 5711 5710 5708 5706 5704 5702 5699 5697 5695 5692 5690 5687 5684 5682 5679 5676 5673 5671 5668 5665 5663 5660 5657 5654 5651 5648 5645 5642 5639 5638 5637 5637 5637 5636 5636 5636 5636 5635 5634 5633 5634 5635 5636 5637 5637 5638 5639 5641 5642 5643
5724 5724 5725 5725 5725 5725 5725 5725 5726 5726 5726 5727 5727 5727 5727 5727 5727 5727 5727 5727 5726 5726 5725 5725 5724 5723 5721 5720 5719 5717 5716 5714 5713 5711 5709 5708 5706 5703 5701 5699 5697 5695 5692 5690 5687 5684 5682 5679 5676 5673 5670 5667 5664 5662 5659 5656 5653 5650 5647 5644 5640 5637 5634 5630 5627 5625 5624 5624 5623 5624 5624 5624 5624 5623 5623 5623 5624 5626 5628 5629 5630 5631 5633 5634 5636
5721 5721 5721 5721 5721 5721 5722 5722 5722 5723 5723 5724 5724 5724 5724 5724 5724 5724 5724 5723 5723 5722 5722 5721 5720 5719 5718 5716 5715 5714 5712 5710 5709 5707 5706 5704 5701 5699 5697 5695 5692 5690 5687 5685 5682 5679 5676 5674 5671 5667 5664 5661 5658 5655 5652 5649 5646 5642 5639 5636 5633 5629 5625 5622 5618 5614 5612 5611 5610 5610 5611 5611 5612 5612 5611 5612 5612 5614 5617 5619 5621 5623 5625 5627 5629
5717 5718 5718 5718 5718 5718 5719 5719 5719 5720 5720 5721 5721 5721 5721 5721 5721 5720 5720 5720 5719 5718 5718 5718 5717 5715 5714 5713 5711 5710 5708 5707 5705 5703 5702 5700 5697 5695 5693 5690 5688 5685 5683 5680 5677 5674 5671 5668 5665 5662 5658 5655 5651 5648 5645 5641 5638 5634 5631 5628 5624 5620 5617 5613 5609 5605 5601 5598 5596 5595 5596 5597 5599 5599 5600 5600 5601 5603 5606 5609 5611 5614 5616 5619 5621
5714 5714 5714 5714 5715 5715 5716 5716 5717 5717 5717 5718 5718 5718 5718 5717 5717 5717 5716 5716 5715 5715 5715 5714 5713 5712 5711 5709 5708 5706 5704 5703 5701 5699 5698 5696 5693 5691 5689 5686 5684 5681 5678 5675 5672 5669 5666 5663 5659 5656 5652 5649 5645 5641 5637 5633 5630 5626 5622 5619 5615 5611 5607 5603 5599 5595 5591 5586 5583 5581 5580 5582 5583 5585 5587 5588 5589 5591 5594 5598 5601 5604 5608 5611 5613
5710 5710 5711 5712 5712 5713 5713 5713 5714 5714 5715 5715 5715 5715 5714 5714 5713 5713 5713 5713 5712 5711 5711 5711 5710 5708 5707 5705 5704 5702 5701 5699 5697 5696 5694 5692 5690 5687 5685 5682 5680 5677 5674 5671 5667 5664 5661 5657 5654 5650 5646 5643 5639 5635 5630 5626 5622 5618 5614 5609 5605 5602 5597 5592 5587 5583 5579 5575 5570 5567 5565 5566 5568 5570 5572 5575 5577 5579 5582 5586 5591 5594 5599 5603 5604
5707 5708 5708 5709 5709 5710 5710 5711 5711 5711 5711 5711 5711 5711 5711 5711 5710 5710 5710 5709 5709 5708 5708 5707 5706 5705 5703 5702 5700 5699 5697 5696 5694 5692 5690 5688 5686 5684 5681 5679 5676 5673 5670 5667 5663 5659 5656 5652 5649 5645 5641 5637 5633 5629 5624 5619 5615 5610 5606 5601 5596 5591 5586 5581 5575 5570 5566 5562 5558 5554 5552 5551 5552 5554 5557 5560 5564 5567 5570 5574 5580 5584 5589 5593 5595
5704 5705 5706 5706 5707 5707 5708 5708 5708 5708 5708 5708 5708 5708 5708 5707 5707 5707 5706 5706 5706 5705 5704 5703 5702 5701 5700 5698 5697 5695 5694 5693 5691 5689 5687 5685 5683 5680 5678 5675 5673 5670 5667 5663 5659 5656 5652 5648 5644 5640 5636 5631 5627 5623 5618 5613 5608 5603 5598 5592 5587 5581 5574 5568 5562 5557 5552 5548 5545 5542 5540 5538 5539 5540 5543 5546 5550 5555 5559 5563 5569 5574 5579 5583 5586
5702 5703 5703 5704 5704 5705 5705 5705 5705 5705 5705 5705 5705 5705 5705 5705 5704 5704 5703 5703 5703 5702 5701 5700 5699 5697 5696 5695 5693 5692 5691 5690 5688 5686 5684 5682 5680 5677 5675 5672 5670 5667 5663 5660 5656 5652 5649 5645 5640 5636 5632 5627 5622 5617 5612 5607 5602 5597 5591 5585 5578 5571 5564 5557 5550 5544 5540 5537 5534 5531 5529 5527 5527 5528 5530 5533 5537 5543 5548 5553 5558 5564 5569 5573 5578
5699 5700 5701 5701 5702 5702 5702 5702 5702 5702 5702 5702 5702 5702 5702 5702 5701 5701 5700 5700 5699 5699 5697 5696 5695 5694 5693 5692 5690 5689 5688 5686 5685 5683 5681 5679 5677 5674 5672 5669 5666 5664 5660 5657 5653 5649 5646 5642 5637 5633 5628 5623 5618 5613 5608 5602 5597 5591 5585 5578 5571 5563 5555 5547 5540 5534 5529 5526 5524 5522 5520 5519 5518 5518 5520 5523 5527 5532 5538 5543 5548 5554 5560 5565 5569
5697 5697 5698 5699 5699 5699 5699 5699 5699 5699 5699 5699 5699 5699 5699 5699 5698 5698 5697 5697 5696 5695 5694 5693 5692 5691 5690 5689 5687 5686 5684 5683 5682 5680 5677 5675 5673 5671 5668 5666 5663 5661 5657 5654 5650 5646 5642 5638 5634 5629 5625 5620 5615 5610 5604 5598 5592 5586 5579 5572 5564 5556 5548 5540 5533 5527 5521 5517 5515 5514 5513 5512 5511 5511 5512 5515 5518 5523 5528 5534 5539 5545 5551 5556 5561
5694 5695 5695 5696 5696 5696 5696 5696 5696 5696 5696 5696 5696 5696 5696 5696 5695 5695 5694 5694 5693 5692 5691 5690 5689 5688 5687 5686 5684 5683 5681 5679 5678 5677 5674 5672 5670 5668 5665 5663 5660 5658 5654 5651 5647 5643 5639 5635 5630 5626 5621 5617 5612 5606 5600 5594 5588 5582 5575 5567 5559 5551 5542 5534 5526 5521 5516 5511 5508 5507 5507 5506 5505 5505 5507 5509 5512 5516 5520 5526 5531 5538 5543 5548 5553
5691 5691 5692 5693 5693 5693 5693 5693 5693 5693 5693 5693 5693 5693 5693 5693 5692 5692 5691 5691 5690 5689 5688 5688 5687 5686 5684 5683 5682 5680 5678 5676 5675 5673 5671 5669 5667 5665 5663 5660 5658 5655 5652 5648 5644 5641 5637 5632 5628 5623 5618 5613 5608 5603 5597 5591 5585 5578 5571 5563 5555 5547 5539 5531 5523 5517 5512 5508 5504 5502 5502 5502 5502 5502 5503 5505 5508 5511 5514 5519 5525 5530 5536 5541 5545
5687 5688 5689 5690 5690 5690 5690 5690 5690 5690 5690 5690 5691 5690 5690 5690 5689 5689 5688 5688 5687 5687 5686 5685 5684 5683 5682 5681 5679 5677 5675 5673 5671 5670 5668 5666 5664 5662 5660 5657 5655 5652 5649 5645 5641 5637 5633 5629 5625 5620 5615 5609 5604 5599 5593 5587 5581 5574 5567 5559 5551 5543 5535 5528 5521 5515 5509 5505 5502 5500 5498 5498 5498 5499 5500 5502 5505 5508 5510 5514 5519 5524 5529 5534 5539
5684 5685 5686 5686 5687 5687 5687 5687 5688 5688 5688 5688 5688 5688 5687 5687 5687 5686 5686 5685 5685 5685 5684 5683 5681 5680 5679 5678 5676 5674 5672 5670 5668 5666 5665 5663 5661 5659 5657 5655 5652 5649 5646 5643 5639 5634 5630 5625 5621 5616 5611 5606 5601 5595 5589 5582 5576 5569 5562 5555 5546 5538 5531 5524 5518 5512 5507 5503 5500 5498 5497 5496 5496 5497 5498 5500 5503 5506 5508 5510 5515 5519 5524 5529 5533
5681 5682 5683 5683 5684 5684 5684 5685 5685 5685 5685 5685 5685 5685 5685 5685 5684 5684 5684 5683 5683 5682 5682 5681 5679 5678 5676 5675 5674 5672 5670 5668 5666 5663 5661 5660 5658 5656 5654 5652 5649 5646 5643 5640 5636 5632 5627 5622 5617 5612 5607 5602 5597 5591 5585 5579 5573 5567 5559 5551 5543 5535 5528 5521 5516 5510 5506 5502 5499 5497 5495 5494 5494 5495 5496 5497 5500 5503 5505 5508 5511 5516 5520 5524 5527
5678 5679 5680 5680 5681 5681 5682 5682 5682 5682 5683 5683 5683 5683 5682 5682 5682 5682 5682 5681 5681 5680 5679 5678 5677 5676 5674 5673 5671 5669 5667 5665 5663 5661 5659 5657 5655 5654 5652 5649 5646 5643 5640 5637 5633 5629 5624 5620 5615 5610 5604 5599 5594 5589 5583 5578 5572 5565 5558 5550 5542 5534 5527 5521 5515 5510 5505 5501 5498 5496 5494 5493 5492 5493 5494 5496 5498 5500 5502 5505 5508 5512 5516 5519 5522